Liberia, Costa Rica

2:47 AM CST on November 25, 2017 (GMT -0600)
Daniel Oduber Quiros International

Weather History for MRLB - December, 2013

Change the Weather History Date:

Thursday, December 19, 2013

  Actual Average Record
Temperature  
Mean Temperature 82 °F -  
Max Temperature 90 °F 88 °F 93 °F (2002)
Min Temperature 75 °F 73 °F 66 °F (2010)
Cooling Degree Days 18    
Growing Degree Days 32 (Base 50)    
Moisture  
Dew Point 66 °F    
Average Humidity 55    
Maximum Humidity 78    
Minimum Humidity 37    
Precipitation  
Precipitation 0.00 in - - ()
Sea Level Pressure  
Sea Level Pressure 29.83 in    
Wind  
Wind Speed 10 mph ()    
Max Wind Speed 22 mph    
Max Gust Speed -    
Visibility 7.9 miles    
Events      
Averages and records for this station are not official NWS values.
T = Trace of Precipitation, MM = Missing Value Source: Averaged Metar Reports

Daily Weather History Graph

Daily Weather History Graph

Search for Another Location

Airport or City:

Trip Planner

Search our weather history database for the weather conditions in past years. The results will help you decide how hot, cold, wet, or windy it might be!

Date:

Astronomy

Dec. 19, 2013 Rise Set
Actual Time 5:54 AM CST 5:24 PM CST
Civil Twilight 5:31 AM CST 5:47 PM CST
Nautical Twilight 5:04 AM CST 6:14 PM CST
Astronomical Twilight 4:38 AM CST 6:40 PM CST
Moon 7:28 PM CST (12/19) 7:30 AM CST (12/19)
Length of Visible Light 12h 16m
Length of Day
11h 30m
Waning Gibbous, 95% of the Moon is Illuminated
Dec 19
Waning Gibbous
Dec 25
Last Quarter
Jan 1
New
Jan 7
First Quarter
Jan 15
Full

Hourly Weather History & Observations

Time (CST) Temp. Heat Index Dew Point Humidity Pressure Visibility Wind Dir Wind Speed Gust Speed Precip Events Conditions
6:00 AM 76 °F - 67 °F 68% 29.89 in 12 mi East 4.6 mph - -   Scattered Clouds
6:00 AM 75.2 °F - 68.0 °F 78% 29.85 in 6.2 mi East 4.6 mph - N/A   Partly Cloudy
7:00 AM 77.0 °F - 66.2 °F 69% 29.86 in 6.2 mi East 6.9 mph - N/A   Mostly Cloudy
8:00 AM 82.4 °F 85.4 °F 68.0 °F 62% 29.89 in 6.2 mi East 9.2 mph - N/A   Mostly Cloudy
9:00 AM 83 °F - 67 °F 48% 29.92 in 12 mi ENE 16.1 mph - -   Clear
9:00 AM 84.2 °F 86.6 °F 66.2 °F 55% 29.89 in 6.2 mi ENE 16.1 mph - N/A   Mostly Cloudy
10:00 AM 86.0 °F 88.2 °F 66.2 °F 51% 29.87 in 6.2 mi East 16.1 mph - N/A   Mostly Cloudy
11:00 AM 86.0 °F 88.2 °F 66.2 °F 51% 29.86 in 6.2 mi ENE 18.4 mph - N/A   Mostly Cloudy
12:00 PM 86 °F - 65 °F 41% 29.87 in 12 mi ENE 17.3 mph - -   Scattered Clouds
12:00 PM 86.0 °F 88.2 °F 66.2 °F 51% 29.83 in 6.2 mi ENE 17.3 mph - N/A   Mostly Cloudy
1:00 PM 89.6 °F 92.2 °F 66.2 °F 46% 29.80 in 6.2 mi ENE 15.0 mph - N/A   Mostly Cloudy
2:00 PM 89.6 °F 93.4 °F 68.0 °F 49% 29.77 in 6.2 mi ENE 15.0 mph - N/A   Mostly Cloudy
3:00 PM 89 °F - 66 °F 37% 29.78 in 12 mi East 13.8 mph - -   Scattered Clouds
3:00 PM 89.6 °F 92.2 °F 66.2 °F 46% 29.75 in 6.2 mi East 13.8 mph - N/A   Mostly Cloudy
4:00 PM 86.0 °F 88.2 °F 66.2 °F 51% 29.76 in 6.2 mi ENE 21.9 mph - N/A   Scattered Clouds
5:00 PM 84.2 °F 85.6 °F 64.4 °F 51% 29.78 in 6.2 mi East 13.8 mph - N/A   Scattered Clouds
6:00 PM 80 °F - 66 °F 53% 29.82 in 12 mi East 6.9 mph - -   Clear
6:00 PM 80.6 °F 82.7 °F 66.2 °F 61% 29.79 in - East 6.9 mph - N/A   Clear
7:00 PM 78.8 °F - 66.2 °F 65% 29.82 in - East 5.8 mph - N/A   Clear
8:00 PM 77.0 °F - 66.2 °F 69% 29.84 in - East 4.6 mph - N/A   Clear